Regional Weather Roundup
Issued by NWS Newport/Morehead, NC

Current Version | Previous Version | Text Only | Print | Product List | Glossary Off
Versions: 1 2 3 4 5 6 7 8 9 10 11 12 13 14 15 16 17 18 19 20 21 22 23 24 25 26 27 28 29 30 31 32 33 34 35 36 37 38 39 40 41 42 43 44 45 46 47 48 49 50
000 ASUS42 KMHX 291425 RWRMHX WEATHER ROUNDUP FOR EASTERN NORTH CAROLINA NATIONAL WEATHER SERVICE NEWPORT/MOREHEAD CITY NC 1000 AM EDT THU JUN 29 2017 NOTE: "FAIR" INDICATES FEW OR NO CLOUDS BELOW 12,000 FEET WITH NO SIGNIFICANT WEATHER AND/OR OBSTRUCTIONS TO VISIBILITY NCZ015>017-031-032-045>047-102-103-291500- NORTH COAST CITY SKY/WX TMP DP RH WIND PRES REMARKS EDENTON CLOUDY 79 66 64 CALM 30.25S ELIZABETH CITY CLOUDY 79 64 60 SW5 30.23F KITTY HAWK PTSUNNY 79 61 54 SE6 30.23S MANTEO CLOUDY 78 61 55 S5 30.25S $$ NCZ045>047-081-094-103-104-291500- CENTRAL COAST CITY SKY/WX TMP DP RH WIND PRES REMARKS FRISCO NOT AVBL $$ NCZ095-097-098-100-101-291500- SOUTHERN COAST CITY SKY/WX TMP DP RH WIND PRES REMARKS BEAUFORT SUNNY 82 69 64 NE5 30.22F CEDAR ISLAND NOT AVBL JACKSONVILLE SUNNY 80 64 58 SE6 30.22F PINEY ISLAND FAIR N/A N/A N/A E7 30.22F WILMINGTON SUNNY 81 64 56 E8 30.22F $$ NCZ011>013-027>030-043-044-078>080-089-090>093-098-291500- COASTAL PLAIN CITY SKY/WX TMP DP RH WIND PRES REMARKS AHOSKIE N/A 76 63 63 CALM 30.23F CLINTON FAIR 79 61 53 CALM 30.23S ELIZABETHTOWN NOT AVBL GOLDSBORO SUNNY 77 64 62 CALM 30.21F GREENVILLE CLOUDY 77 59 53 SW3 30.24S HAVELOCK FAIR 81 63 54 E3 30.24S KENANSVILLE FAIR 77 63 61 S5 30.24S KINSTON SUNNY 77 59 53 SW3 30.24S NEW BERN SUNNY 80 63 55 SE6 30.24S RICHLANDS FAIR 80 64 58 SE6 30.23F ROCKY MOUNT CLOUDY 76 62 62 SW5 30.23S WASHINGTON CLOUDY N/A N/A N/A SW3 30.24R WHITEVILLE SUNNY 80 57 44 E5 30.21F $$ AMZ130-135-150-152-154-156-158-170-250-252-270-ANZ085-086-088-633-658-670-291500- MARINE OBSERVATIONS STATION/POSITION TIME TEMP WIND PRES WAVE SWELL AIR SEA DIR/SP/G HT/PER HT/PER (UTC) (F) (DEG/KT/KT) (MB) (FT/S) (FT/S) CHESAPEAKE LIGHT NOT AVBL 64 E VA BEACH 1350 74 74 160/ 8/ 10 1024.6 1/ 8 2/ 8 DUCK 1400 75 71 130/ 9/ 10 1023.5 2 E DUCK NOT AVBL OREGON INLET 1400 78 76 110/ 6/ 10 1024.0 13E OREGON INLT 1348 74 N/A 2/ 7 2/ 7 HATTERAS CG 1400 79 77 110/ 6/ 8 1023.8 DIAMOND BUOY 1350 79 83 90/ 10/ 12 1023.9 2/ 8 2/ 8 CAPE LOOKOUT 1400 79 50/ 9/ 9 1023.2 BEAUFORT LAB 1400 80 78 130/ 4/ 7 1022.9 30 SE NEW RVR IN 1408 79 80 90/ 6/ 8 1023.6 30 SE NEW RVR IN 1343 80 N/A 2/ 6 27 SE WRIGHTSVLE 1408 80 80 80/ 8/ 10 1023.3 5 SE WRIGHTSVLE 1408 78 79 60/ 10/ 14 1023.2 225 S CAPE HAT 1350 78 80 60/ 14/ 16 1022.3 3/ 7 2/ 7 41 SE CHARLESTON 1410 81 81 90/ 12/ 14 1022.0 $$

USA.gov is the U.S. government's official web portal to all federal, state and local government web resources and services.